Regional Weather Roundup
Issued by NWS

Home | Current Version | Previous Version | Graphics & Text | Print | Product List | Glossary Off
Versions: 1 2 3 4 5 6 7 8 9 10 11 12 13 14 15 16 17 18 19 20 21 22 23 24 25 26 27 28 29 30 31 32 33 34 35 36 37 38 39 40 41 42 43 44 45 46 47 48 49 50

019
ASUS43 KMKX 172221
RWRWI

WISCONSIN REGIONAL WEATHER ROUNDUP
NATIONAL WEATHER SERVICE MILWAUKEE/SULLIVAN WI
500 PM CDT THU AUG 17 2017

NOTE: "FAIR" INDICATES FEW OR NO CLOUDS BELOW 12,000 FEET WITH NO
SIGNIFICANT WEATHER AND/OR OBSTRUCTIONS TO VISIBILITY.

WIZ001-002-006>008-014>016-023>028-172300-
NORTHWEST WISCONSIN

CITY           SKY/WX    TMP DP  RH WIND       PRES   REMARKS
SUPERIOR ARPT    N/A     64  62  91 NW15      29.70R
ASHLAND        CLOUDY    62  62 100 N6        29.66R FOG
HAYWARD        CLOUDY    64  60  87 NW7       29.68R
SIREN          DRIZZLE   63  61  94 NW14G20   29.73R
CUMBERLAND     CLOUDY    61  59  94 NW15G25   29.71R FOG
RICE LAKE      CLOUDY    64  60  89 NW13G22   29.71R
CHETEK         CLOUDY    64  62  91 NW12G21   29.69R
LADYSMITH      CLOUDY    67  62  84 NW15G21   29.66R
EAU CLAIRE     CLOUDY    67  60  78 W13       29.67R
MENOMONIE      CLOUDY    67  60  79 NW13G22   29.70R
NEW RICHMOND   CLOUDY    66  61  85 NW14      29.74R
OSCEOLA        CLOUDY    67  66  99 NW8       29.76S
$$

WIZ003>005-009-010-017-018-172300-
NORTH CENTRAL WISCONSIN

CITY           SKY/WX    TMP DP  RH WIND       PRES   REMARKS
MANITOWISH WTR CLOUDY    67  67 100 NW10G17   29.58S
ARBOR VITAE    CLOUDY    69  67  92 N7        29.58R
WOODRUFF       CLOUDY    69  67  92 N7        29.58R
RHINELANDER    LGT RAIN  69  67  93 W8        29.58R FOG
EAGLE RIVER    PTSUNNY   70  65  86 NW8       29.57R
LAND O LAKES   DRIZZLE   68  64  86 NW3       29.59R
PHILLIPS       CLOUDY    65  65 100 W7G17     29.61R
TOMAHAWK         N/A     69  67  91 NW6       29.58R
MEDFORD        CLOUDY    66  63  91 W16G23    29.61R
MERRILL        CLOUDY    72  70  94 W10G16    29.57R
$$

WIZ029-030-035-036-043>047-172300-
CENTRAL WISCONSIN

CITY           SKY/WX    TMP DP  RH WIND       PRES   REMARKS
WAUSAU         LGT RAIN  73  66  78 W17G23    29.56R
MOSINEE        PTSUNNY   72  66  83 W16G22    29.59R
MARSHFIELD     CLOUDY    67  63  87 W20G30    29.61R
STEVENS POINT  CLOUDY    69  68  95 SW18      29.59S
WAUPACA        PTSUNNY   75  67  77 SW14      29.59R
WAUTOMA        LGT RAIN  73  66  78 W15G21    29.61R
WISC RAPIDS    LGT RAIN  69  67  93 W15G26    29.63R FOG
CAMP DOUGLAS   CLOUDY    70  64  83 W16G23    29.65R
$$

WIZ011>013-019>022-031-037>040-048>050-172300-
NORTHEAST WISCONSIN

CITY           SKY/WX    TMP DP  RH WIND       PRES   REMARKS
ANTIGO         LGT RAIN  69  67  95 W8        29.56S
SHAWANO        CLOUDY    74  66  77 SW14G20   29.54S
OCONTO         PTSUNNY   74  66  76 SW10G23   29.54F
STURGEON BAY   LGT RAIN  73  67  81 SW13G20   29.57S
GREEN BAY      CLOUDY    75  67  76 SW14G22   29.56F
MANITOWOC      PTSUNNY   76  65  68 SW13G25   29.60S
APPLETON       LGT RAIN  72  63  73 W20G25    29.58S
CLINTONVILLE   CLOUDY    72  64  78 SW15      29.56S
OSHKOSH        MOSUNNY   76  66  71 SW10G21   29.59S
$$

WIZ032>034-041-042-053>061-172300-
SOUTHWEST WISCONSIN

CITY           SKY/WX    TMP DP  RH WIND       PRES   REMARKS
LA CROSSE      CLOUDY    72  62  71 NW15      29.70R
SPARTA         CLOUDY    67  62  83 W15G23    29.69R
VIROQUA        CLOUDY    67  63  87 W16G22    29.73R
BOSCOBEL       CLOUDY    73  66  78 W15G21    29.71R
PRAIRIE DU CHI CLOUDY    72  62  70 W17G25    29.72S
PLATTEVILLE    CLOUDY    73  67  81 W16G23    29.75R
$$

WIZ056-057-062-063-064-067-068-172300-
SOUTH CENTRAL WISCONSIN

CITY           SKY/WX    TMP DP  RH WIND       PRES   REMARKS
REEDSBURG      CLOUDY    72  66  81 W15G24    29.67R
BARABOO/DELLS  CLOUDY    71  63  76 W14G21    29.67R
LONE ROCK      CLOUDY    72  67  84 W14G25    29.69R
MINERAL POINT  CLOUDY    73  68  83 W24G31    29.73R
MADISON        PTSUNNY   73  64  73 W8G21     29.67R
MIDDLETON      CLOUDY    72  65  79 W17G26    29.70R
WATERTOWN      CLOUDY    73  66  79 W18G26    29.67R
MONROE         CLOUDY    72  63  73 W18G24    29.73R
JANESVILLE     PTSUNNY   75  68  78 W13       29.70R
$$

WIZ051-052-058>065-066-070>072-172300-
SOUTHEAST WISCONSIN

CITY           SKY/WX    TMP DP  RH WIND       PRES   REMARKS
MILWAUKEE      PTSUNNY   77  66  68 W14       29.67R
WAUKESHA       CLOUDY    72  64  78 SW14G25   29.68S
MILWAUKEE/TIMM PTSUNNY   75  61  60 SW23G33   29.66S
RACINE         CLOUDY    78  66  66 SW15G22   29.68F HX  80
KENOSHA        PTSUNNY   80  66  62 W15G25    29.68F HX  82
FOND DU LAC    PTSUNNY   75  64  68 SW13G25   29.62S
SHEBOYGAN      LGT RAIN  74  68  81 SW18G25   29.62S
WEST BEND      DRIZZLE   70  68  94 SW12G17   29.65R
JUNEAU         CLOUDY    72  65  80 SW15G23   29.67R
$$

LSZ147-162-172300-
LAKE SUPERIOR

STATION/POSITION TIME  TEMP    WIND        PRES    WAVE
                       AIR SEA DIR/SP/G            HT/PER
                 (UTC) (F)     (DEG/KT/KT) (MB)    (FT/S)
W MID LAKE BUOY  2050   59 60   10/ 17/ 21 1000.8F   5/ 5
DEVILS ISLAND    2200   61     300/  7/  8 1003.9R
SAXON HARBOR     2140   62     350/ 14/ 18 1003.0R
$$

LMZ867-665-643>646-172300-
LAKE MICHIGAN

STATION/POSITION TIME  TEMP    WIND        PRES    WAVE
                       AIR SEA DIR/SP/G            HT/PER
                 (UTC) (F)     (DEG/KT/KT) (MB)    (FT/S)
S GREEN BAY BUOY 2200   73 72  200/ 19/ 23 1000.4F
N MID LAKE BUOY  2150   69 68  180/ 19/ 23 1001.1F   4/ 6
NORTHPORT PIER   2140   73     170/  9/ 16 1000.7F
KEWAUNEE LAKESHO 2200   75     220/  7/ 14 1001.1
SHEBOYGAN LAKESH 2200   76     230/ 17/ 21 1002.2F
PORT WASHINGTON  2140   80     240/ 13/ 23 1004.1S
ATWATER BUOY     2109   76 71  230/ 19/ 23 1004.5F
MILWAUKEE LAKESH 2200   75     240/ 16/ 19   N/A
S MID LAKE BUOY  2050   74 71  230/ 12/ 16 1005.0R   3/ 5
KENOSHA   LAKESH 2200   80     240/ 14/ 19 1004.7
$$

TC  - TEMPERATURE IN CELSIUS
VSB - VISIBILITY IN STATUTE MILES
WCI - WIND CHILL INDEX
HX  - HEAT INDEX





USA.gov is the U.S. government's official web portal to all federal, state and local government web resources and services.